Location: Staunton
(38.1490°N, 79.0720°W)
Time: 14:47:24
(UTC-04:00)

ISS - Pass Details

Date: 20 July 2019
Orbit: 409 x 418 km, 51.6° (Epoch: 20 July)

Event Time Altitude Azimuth Distance (km) Brightness Sun altitude
Rises 03:16:38 0° 314° (NW) 2,343 0.2 -25.4°
Enters shadow 03:18:35 - 322° (NW) 1,570 -0.6 -25.2°
Exits shadow 03:26:34 - 111° (ESE) 2,066 -0.1 -24.4°
Sets 03:27:13 0° 112° (ESE) 2,325 0.1 -24.3°
